Grosse Ile, MI

3:25 AM EDT on April 30, 2017 (GMT -0400)
Grosse Ile Municipal

Weather History for KONZ - September, 2013

Change the Weather History Date:

Thursday, September 5, 2013

  Actual Average (KDTW) Record (KDTW)
Temperature  
Mean Temperature 64 °F -  
Max Temperature 71 °F 78 °F 99 °F (1954)
Min Temperature 57 °F 57 °F 42 °F (1974)
Degree Days  
Heating Degree Days 1    
Growing Degree Days 14 (Base 50)    
Moisture  
Dew Point 51 °F    
Average Humidity 63    
Maximum Humidity 88    
Minimum Humidity 35    
Precipitation  
Precipitation 0.00 in - - ()
Sea Level Pressure  
Sea Level Pressure 30.19 in    
Wind  
Wind Speed 6 mph (NNE)    
Max Wind Speed 13 mph    
Max Gust Speed 16 mph    
Visibility 10 miles    
Events      
Averages and records for this station are not official NWS values.
T = Trace of Precipitation, MM = Missing Value Source: NWS Daily Summary

Daily Weather History Graph

Daily Weather History Graph

Search for Another Location

Airport or City:

Trip Planner

Search our weather history database for the weather conditions in past years. The results will help you decide how hot, cold, wet, or windy it might be!

Date:

Astronomy

Sep. 05, 2013 Rise Set
Actual Time 7:02 AM EDT 7:59 PM EDT
Civil Twilight 6:34 AM EDT 8:27 PM EDT
Nautical Twilight 6:00 AM EDT 9:01 PM EDT
Astronomical Twilight 5:24 AM EDT 9:36 PM EDT
Moon 7:14 AM EDT (9/5) 7:48 PM EDT (9/5)
Length of Visible Light 13h 53m
Length of Day
12h 56m
New Moon, 0% of the Moon is Illuminated
Sep 5
New Moon
Sep 12
First Quarter
Sep 19
Full
Sep 26
Last Quarter
Oct 4
New

Hourly Weather History & Observations

Time (EDT) Temp. Dew Point Humidity Pressure Visibility Wind Dir Wind Speed Gust Speed Precip Events Conditions
12:14 AM 69.8 °F 60.8 °F 73% 30.06 in 10.0 mi NW 9.2 mph - N/A   Clear
12:34 AM 69.8 °F 60.8 °F 73% 30.06 in 10.0 mi NW 6.9 mph - N/A   Clear
12:54 AM 69.8 °F 60.8 °F 73% 30.07 in 10.0 mi NNW 5.8 mph - N/A   Clear
1:14 AM 68.0 °F 60.8 °F 78% 30.07 in 10.0 mi NE 3.5 mph - N/A   Clear
1:34 AM 66.2 °F 60.8 °F 83% 30.08 in 10.0 mi Calm Calm - N/A   Clear
1:54 AM 66.2 °F 60.8 °F 83% 30.08 in 10.0 mi Calm Calm - N/A   Mostly Cloudy
2:14 AM 66.2 °F 60.8 °F 83% 30.08 in 10.0 mi Calm Calm - N/A   Mostly Cloudy
2:34 AM 66.2 °F 60.8 °F 83% 30.09 in 10.0 mi Calm Calm - N/A   Scattered Clouds
2:54 AM 64.4 °F 60.8 °F 88% 30.09 in 10.0 mi Calm Calm - N/A   Scattered Clouds
3:14 AM 66.2 °F 62.6 °F 88% 30.09 in 10.0 mi Calm Calm - N/A   Scattered Clouds
3:34 AM 66.2 °F 60.8 °F 83% 30.09 in 10.0 mi Calm Calm - N/A   Scattered Clouds
3:54 AM 66.2 °F 60.8 °F 83% 30.10 in 10.0 mi NNW 4.6 mph - N/A   Scattered Clouds
4:14 AM 66.2 °F 60.8 °F 83% 30.11 in 10.0 mi NNW 3.5 mph - N/A   Scattered Clouds
4:35 AM 64.4 °F 60.8 °F 88% 30.12 in 10.0 mi North 4.6 mph - N/A   Clear
4:54 AM 64.4 °F 60.8 °F 88% 30.12 in 10.0 mi North 5.8 mph - N/A   Scattered Clouds
5:14 AM 64.4 °F 60.8 °F 88% 30.13 in 10.0 mi North 5.8 mph - N/A   Mostly Cloudy
5:34 AM 64.4 °F 60.8 °F 88% 30.13 in 10.0 mi Calm Calm - N/A   Mostly Cloudy
5:54 AM 64.4 °F 59.0 °F 83% 30.14 in 10.0 mi North 6.9 mph - N/A   Overcast
6:14 AM 64.4 °F 57.2 °F 77% 30.15 in 10.0 mi North 6.9 mph - N/A   Scattered Clouds
6:34 AM 62.6 °F 57.2 °F 82% 30.16 in 10.0 mi North 6.9 mph - N/A   Scattered Clouds
6:54 AM 62.6 °F 55.4 °F 77% 30.16 in 10.0 mi North 5.8 mph - N/A   Scattered Clouds
7:14 AM 62.6 °F 55.4 °F 77% 30.18 in 10.0 mi North 9.2 mph - N/A   Overcast
7:34 AM 62.6 °F 55.4 °F 77% 30.19 in 10.0 mi North 11.5 mph - N/A   Overcast
7:54 AM 60.8 °F 53.6 °F 77% 30.19 in 10.0 mi NNE 6.9 mph - N/A   Scattered Clouds
8:14 AM 60.8 °F 50.0 °F 68% 30.20 in 10.0 mi NNE 5.8 mph - N/A   Clear
8:34 AM 60.8 °F 50.0 °F 68% 30.19 in 10.0 mi North 6.9 mph - N/A   Clear
8:54 AM 60.8 °F 48.2 °F 63% 30.20 in 10.0 mi North 9.2 mph - N/A   Clear
9:14 AM 60.8 °F 50.0 °F 68% 30.20 in 10.0 mi NNE 5.8 mph - N/A   Clear
9:34 AM 62.6 °F 50.0 °F 63% 30.21 in 10.0 mi North 10.4 mph - N/A   Clear
9:54 AM 62.6 °F 50.0 °F 63% 30.21 in 10.0 mi NNW 8.1 mph - N/A   Clear
10:14 AM 64.4 °F 48.2 °F 56% 30.22 in 10.0 mi North 6.9 mph - N/A   Clear
10:34 AM 64.4 °F 44.6 °F 49% 30.22 in 10.0 mi North 10.4 mph - N/A   Clear
10:54 AM 64.4 °F 39.2 °F 40% 30.23 in 10.0 mi North 9.2 mph - N/A   Clear
11:14 AM 66.2 °F 44.6 °F 46% 30.23 in 10.0 mi North 9.2 mph - N/A   Clear
11:34 AM 66.2 °F 44.6 °F 46% 30.23 in 10.0 mi North 6.9 mph - N/A   Clear
11:54 AM 66.2 °F 44.6 °F 46% 30.23 in 10.0 mi NE 9.2 mph - N/A   Clear
12:14 PM 66.2 °F 42.8 °F 43% 30.23 in 10.0 mi NNE 12.7 mph - N/A   Clear
12:34 PM 68.0 °F 44.6 °F 43% 30.23 in 10.0 mi NNE 6.9 mph - N/A   Clear
12:54 PM 68.0 °F 44.6 °F 43% 30.23 in 10.0 mi NE 8.1 mph - N/A   Clear
1:14 PM 69.8 °F 42.8 °F 38% 30.24 in 10.0 mi NNW 9.2 mph - N/A   Clear
1:34 PM 69.8 °F 42.8 °F 38% 30.23 in 10.0 mi North 8.1 mph - N/A   Clear
1:54 PM 69.8 °F 42.8 °F 38% 30.23 in 10.0 mi North 8.1 mph - N/A   Clear
2:14 PM 69.8 °F 42.8 °F 38% 30.23 in 10.0 mi NE 10.4 mph - N/A   Clear
2:34 PM 69.8 °F 42.8 °F 38% 30.22 in 10.0 mi ENE 10.4 mph - N/A   Clear
2:54 PM 71.6 °F 42.8 °F 35% 30.22 in 10.0 mi NE 9.2 mph - N/A   Clear
3:14 PM 71.6 °F 46.4 °F 41% 30.21 in 10.0 mi ENE 9.2 mph - N/A   Clear
3:34 PM 71.6 °F 44.6 °F 38% 30.21 in 10.0 mi ENE 8.1 mph - N/A   Clear
3:54 PM 71.6 °F 44.6 °F 38% 30.21 in 10.0 mi NE 9.2 mph - N/A   Clear
4:14 PM 71.6 °F 44.6 °F 38% 30.21 in 10.0 mi ENE 10.4 mph - N/A   Clear
4:34 PM 71.6 °F 42.8 °F 35% 30.21 in 10.0 mi NE 9.2 mph - N/A   Clear
4:54 PM 71.6 °F 42.8 °F 35% 30.21 in 7.0 mi NE 8.1 mph - N/A   Clear
5:14 PM 69.8 °F 50.0 °F 49% 30.21 in 7.0 mi East 6.9 mph - N/A   Clear
5:34 PM 69.8 °F 50.0 °F 49% 30.21 in 10.0 mi East 6.9 mph - N/A   Clear
5:54 PM 69.8 °F 50.0 °F 49% 30.21 in 10.0 mi NE 6.9 mph - N/A   Clear
6:14 PM 69.8 °F 50.0 °F 49% 30.22 in 10.0 mi East 6.9 mph - N/A   Clear
6:34 PM 68.0 °F 50.0 °F 52% 30.21 in 10.0 mi ENE 9.2 mph - N/A   Clear
6:54 PM 66.2 °F 48.2 °F 52% 30.21 in 10.0 mi ENE 6.9 mph - N/A   Clear
7:13 PM 66.2 °F 50.0 °F 56% 30.21 in 10.0 mi ENE 8.1 mph - N/A   Clear
7:34 PM 64.4 °F 50.0 °F 59% 30.21 in 10.0 mi ENE 5.8 mph - N/A   Clear
7:54 PM 64.4 °F 50.0 °F 59% 30.22 in 10.0 mi ENE 6.9 mph - N/A   Clear
8:14 PM 64.4 °F 50.0 °F 59% 30.22 in 10.0 mi ENE 8.1 mph - N/A   Clear
8:34 PM 62.6 °F 51.8 °F 68% 30.23 in 10.0 mi ENE 6.9 mph - N/A   Clear
8:54 PM 62.6 °F 51.8 °F 68% 30.24 in 10.0 mi ENE 8.1 mph - N/A   Clear
9:14 PM 60.8 °F 51.8 °F 72% 30.24 in 10.0 mi ENE 8.1 mph - N/A   Clear
9:34 PM 60.8 °F 50.0 °F 68% 30.25 in 10.0 mi ENE 8.1 mph - N/A   Clear
9:54 PM 60.8 °F 50.0 °F 68% 30.25 in 10.0 mi ENE 8.1 mph 16.1 mph N/A   Clear
10:14 PM 59.0 °F 50.0 °F 72% 30.25 in 10.0 mi NE 9.2 mph - N/A   Clear
10:34 PM 59.0 °F 50.0 °F 72% 30.26 in 10.0 mi ENE 8.1 mph - N/A   Clear
10:54 PM 57.2 °F 50.0 °F 77% 30.26 in 10.0 mi ENE 9.2 mph - N/A   Clear
11:14 PM 57.2 °F 50.0 °F 77% 30.26 in 10.0 mi NE 4.6 mph - N/A   Clear
11:34 PM 57.2 °F 48.2 °F 72% 30.26 in 10.0 mi ENE 6.9 mph - N/A   Clear
11:54 PM 57.2 °F 48.2 °F 72% 30.26 in 10.0 mi NE 4.6 mph - N/A   Clear